This is the latest recevied weather packets stored in our database for station/object KE5VT. If no packets are shown the sender has not sent any weather packets the latest 10 day(s).
| Time | Temp. | Humidity | Pressure | Rain* | Wind** | Luminosity | Snow |
|---|---|---|---|---|---|---|---|
| 1777908241 | 18.89° C | 45% | 1013.6 hPa | 0 mm | - | 57 W/m² | - |
| 1777907938 | 18.89° C | 45% | 1013.7 hPa | 0 mm | - | 60 W/m² | - |
| 1777907633 | 18.89° C | 48% | 1013.7 hPa | 0 mm | - | 57 W/m² | - |
| 1777907329 | 18.89° C | 51% | 1013.7 hPa | 0 mm | - | 71 W/m² | - |
| 1777907025 | 18.89° C | 51% | 1013.7 hPa | 0 mm | - | 52 W/m² | - |
| 1777906723 | 18.33° C | 51% | 1013.8 hPa | 0 mm | - | 70 W/m² | - |
| 1777906419 | 18.33° C | 54% | 1013.6 hPa | 0 mm | - | 58 W/m² | - |
| 1777906116 | 17.78° C | 52% | 1013.7 hPa | 0 mm | - | 105 W/m² | - |
| 1777905812 | 17.78° C | 56% | 1013.8 hPa | 0 mm | - | 43 W/m² | - |
| 1777905510 | 17.78° C | 55% | 1013.9 hPa | 0 mm | - | 74 W/m² | - |
| 1777905206 | 17.22° C | 56% | 1013.9 hPa | 0 mm | - | 46 W/m² | - |
| 1777904904 | 17.22° C | 57% | 1013.8 hPa | 0 mm | - | 47 W/m² | - |
| 1777904601 | 16.67° C | 57% | 1013.8 hPa | 0 mm | - | 38 W/m² | - |
| 1777904298 | 16.67° C | 58% | 1013.9 hPa | 0 mm | - | 37 W/m² | - |
| 1777903995 | 16.67° C | 59% | 1013.8 hPa | 0 mm | - | 36 W/m² | - |
| 1777903692 | 16.11° C | 60% | 1013.9 hPa | 0 mm | - | 35 W/m² | - |
| 1777903388 | 15.56° C | 63% | 1013.9 hPa | 0 mm | - | 35 W/m² | - |
| 1777903084 | 15.56° C | 62% | 1013.7 hPa | 0 mm | - | 53 W/m² | - |
| 1777902781 | 15.56° C | 60% | 1013.9 hPa | 0 mm | - | 34 W/m² | - |
| 1777902479 | 15.56° C | 63% | 1013.8 hPa | 0 mm | - | 33 W/m² | - |
| 1777902175 | 15° C | 66% | 1013.8 hPa | 0 mm | - | 33 W/m² | - |
| 1777901873 | 14.44° C | 68% | 1013.7 hPa | 0 mm | - | 32 W/m² | - |
| 1777901570 | 14.44° C | 68% | 1013.8 hPa | 0 mm | - | 33 W/m² | - |
| 1777901267 | 13.89° C | 70% | 1013.8 hPa | 0 mm | - | 42 W/m² | - |
| 1777900965 | 13.89° C | 71% | 1013.6 hPa | 0 mm | - | 30 W/m² | - |
* Rain latest hour (hover to see other rain measurements)
** Current wind speed in m/s (hover to see current wind gust speed)